Location: Stara Lesna
(49.1528°N, 20.2911°E)
Time: 07:47:38
(UTC+02:00)

Cosmos 2195 Rocket - Pass Details

Date: 21 September 2019
Orbit: 948 x 994 km, 82.9° (Epoch: 15 October)

Event Time Altitude Azimuth Distance (km) Brightness Sun altitude
Exits shadow 04:27:25 20° 200° (SSW) 2,129 5.9 -19.1°
Maximum altitude 04:32:00 70° 281° (W) 1,042 4.4 -18.4°
Drops below altitude 10° 04:38:15 10° 6° (N) 2,730 7.2 -17.5°
Sets 04:40:47 0° 9° (N) 3,675 8.0 -17.1°
